McCook, NE

4:42 AM CST on December 09, 2019 (GMT -0600)
McCook Municipal

Weather History for KMCK - November, 2019

Change the Weather History Date:

Tuesday, November 19, 2019

  Actual Average Record
Temperature  
Mean Temperature 46 °F 36 °F  
Max Temperature 66 °F 50 °F 89 °F (2007)
Min Temperature 26 °F 23 °F 5 °F (1937)
Degree Days  
Heating Degree Days 19    
Moisture  
Dew Point 28 °F    
Average Humidity 59    
Maximum Humidity 89    
Minimum Humidity 26    
Precipitation  
Precipitation 0.00 in 0.03 in 0.73 in (1975)
Month to date precipitation 0.05 0.65  
Year to date precipitation 18.61 21.59  
Sea Level Pressure  
Sea Level Pressure 29.85 in    
Wind  
Wind Speed 6 mph ()    
Max Wind Speed 14 mph    
Max Gust Speed 23 mph    
Visibility 10.0 miles    
Events      
T = Trace of Precipitation, MM = Missing Value Source: Averaged Metar Reports

Daily Weather History Graph

Daily Weather History Graph

Search for Another Location

Airport or City:

Astronomy

Nov. 19, 2019 Rise Set
Actual Time 7:32 AM CST 5:22 PM CST
Civil Twilight 7:03 AM CST 5:52 PM CST
Nautical Twilight 6:29 AM CST 6:25 PM CST
Astronomical Twilight 5:57 AM CST 6:57 PM CST
Moon No Moon Rise 1:44 PM CST (11/19)
Length of Visible Light 10h 49m
Length of Day
9h 50m
Waning Gibbous, 51% of the Moon is Illuminated
Nov 19
Waning Gibbous
Nov 19
Last Quarter
Nov 26
New
Dec 4
First Quarter
Dec 11
Full

Hourly Weather History & Observations

Time (CST) Temp. Windchill Dew Point Humidity Pressure Visibility Wind Dir Wind Speed Gust Speed Precip Events Conditions
12:53 AM 33.1 °F 26.1 °F 26.1 °F 75% 29.93 in 10.0 mi WNW 8.1 mph - N/A   Clear
1:53 AM 30.0 °F 24.1 °F 25.0 °F 82% 29.92 in 10.0 mi WSW 5.8 mph - N/A   Clear
2:53 AM 30.9 °F 23.5 °F 25.0 °F 79% 29.92 in 10.0 mi West 8.1 mph - N/A   Clear
3:53 AM 28.9 °F 21.9 °F 25.0 °F 85% 29.92 in 10.0 mi West 6.9 mph - N/A   Clear
4:53 AM 28.0 °F - 24.1 °F 85% 29.92 in 10.0 mi Calm Calm - N/A   Clear
5:53 AM 27.0 °F 21.6 °F 23.0 °F 85% 29.94 in 10.0 mi West 4.6 mph - N/A   Clear
6:53 AM 27.0 °F - 23.0 °F 85% 29.95 in 10.0 mi Calm Calm - N/A   Clear
7:53 AM 27.0 °F - 24.1 °F 89% 29.96 in 10.0 mi Calm Calm - N/A   Clear
8:53 AM 30.0 °F - 26.1 °F 85% 29.96 in 10.0 mi Calm Calm - N/A   Clear
9:53 AM 39.9 °F - 28.9 °F 65% 29.94 in 10.0 mi Calm Calm - N/A   Clear
10:53 AM 48.9 °F - 30.0 °F 48% 29.90 in 10.0 mi ESE 4.6 mph - N/A   Clear
11:53 AM 60.1 °F - 28.0 °F 30% 29.85 in 10.0 mi South 9.2 mph - N/A   Clear
12:53 PM 64.0 °F - 28.0 °F 26% 29.81 in 10.0 mi South 13.8 mph 23.0 mph N/A   Clear
1:53 PM 64.0 °F - 28.9 °F 27% 29.79 in 10.0 mi SSE 9.2 mph 19.6 mph N/A   Clear
2:53 PM 64.9 °F - 30.0 °F 27% 29.76 in 10.0 mi South 13.8 mph - N/A   Clear
3:53 PM 66.0 °F - 30.9 °F 27% 29.75 in 10.0 mi SSE 11.5 mph - N/A   Clear
4:53 PM 61.0 °F - 30.9 °F 32% 29.76 in 10.0 mi SE 9.2 mph - N/A   Clear
5:53 PM 53.1 °F - 30.0 °F 41% 29.77 in 10.0 mi ESE 8.1 mph - N/A   Clear
6:53 PM 51.1 °F - 30.0 °F 44% 29.78 in 10.0 mi East 9.2 mph - N/A   Clear
7:53 PM 51.1 °F - 32.0 °F 48% 29.79 in 10.0 mi East 9.2 mph - N/A   Clear
8:53 PM 46.9 °F - 30.9 °F 54% 29.79 in 10.0 mi ESE 6.9 mph - N/A   Clear
9:53 PM 46.0 °F 42.5 °F 32.0 °F 58% 29.76 in 10.0 mi East 6.9 mph - N/A   Clear
10:53 PM 42.1 °F 39.2 °F 30.9 °F 65% 29.74 in 10.0 mi NE 4.6 mph - N/A   Clear
11:53 PM 36.0 °F 31.1 °F 28.9 °F 76% 29.72 in 10.0 mi NE 5.8 mph - N/A   Clear